Погода в Норт-Йорке

Канада     43°46′54″N   79°24′44″W
темп.,
°C
ветер,
м/с
пор.,
м/с
влажн.,
%
обл.,
%
осадки,
мм/ч
давл.,
гПа
погр.,
м
12 апреля, пн
пн1223:00+12в51092100 0.6 1001682
02:00+10в41095100 1.1 1000482
05:00+9в4995100 0.7 1001435
08:00+7в3595100 1.1 1003221
11:00+8в2495100 1.3 1005230
14:00+8в2394100 4.0 1007277
17:00+8св479166 2.2 1008251
20:00+7в3691100 2.2 1011394
13 апреля, вт
вт1323:00+7в2592100 0.0 1013280
02:00+7в3792100 0.0 1014322
05:00+7вюв2493100 0.0 1015273
08:00+7в1291100 0.1 1017195
11:00+9вюв1185100 0.0 1017293
14:00+13ю126575 0.0 1017771
17:00+14ю235916 0.1 10151061
20:00+11юв237463 0.4 1017223
14 апреля, ср
ср1423:00+10в1180100 0.1 1017100
02:00+9в118132 0.1 101638
05:00+8юз11885 0.0 101621
08:00+8з13731 0.0 1017140
11:00+13юз24415 0.0 10161163
14:00+15ю3533100 0.0 10132420
17:00+14ююз3638100 0.0 10111983
20:00+9ссз4573100 0.2 1012575
15 апреля, чт
чт1523:00+6сз348082 0.0 1012483
02:00+6сз227599 0.0 1010632
05:00+5ссз2374100 0.0 1009446
08:00+5ссз2468100 0.0 1009500
11:00+8ссз3452100 0.0 1007894
14:00+10с4445100 0.0 10061865
17:00+9с565099 0.1 10071409
20:00+6ссз3580100 0.2 1008687
16 апреля, пт
пт1623:00+4з349299 0.6 1008445
02:00+5юз118096 0.7 1008630
05:00+5вюв1273100 0.0 1009684
08:00+5с2370100 0.1 1010602
11:00+7с3469100 0.0 1011899
14:00+6с3586100 0.4 1013784
17:00+8св3573100 0.1 10131131
20:00+7св2478100 0.3 1015605